Location: *
(38.9800°N, 16.0500°E)
Time: 05:54:16
(UTC+00:00)

Cosmos 2151 Rocket - Pass Details

Date: 07 April 2020
Orbit: 618 x 641 km, 82.5° (Epoch: 05 June)

Event Time Altitude Azimuth Distance (km) Brightness Sun altitude
Rises 03:31:41 0° 342° (NNW) 2,902 7.0 -12.0°
Reaches altitude 10° 03:34:04 10° 334° (NNW) 1,990 6.1 -11.5°
Maximum altitude 03:38:02 34° 269° (W) 1,023 4.2 -10.8°
Drops below altitude 10° 03:41:59 10° 204° (SSW) 1,978 5.8 -10.0°
Sets 03:44:21 0° 195° (SSW) 2,880 6.7 -9.6°
